This is the latest recevied weather packets stored in our database for station/object N4YH-13. If no packets are shown the sender has not sent any weather packets the latest 10 day(s).
| Time | Temp. | Humidity | Pressure | Rain* | Wind** | Luminosity | Snow |
|---|---|---|---|---|---|---|---|
| 1777916524 | 23.33° C | 53% | 1013.5 hPa | 0 mm | - | - | - |
| 1777916404 | 22.78° C | 53% | 1013.5 hPa | 0 mm | - | - | - |
| 1777916283 | 23.33° C | 51% | 1013.5 hPa | 0 mm | - | - | - |
| 1777916163 | 22.78° C | 52% | 1013.5 hPa | 0 mm | - | - | - |
| 1777916043 | 22.78° C | 52% | 1013.5 hPa | 0 mm | - | - | - |
| 1777915923 | 22.78° C | 54% | 1013.8 hPa | 0 mm | - | - | - |
| 1777915804 | 22.22° C | 54% | 1013.7 hPa | 0 mm | - | - | - |
| 1777915684 | 22.22° C | 54% | 1013.7 hPa | 0 mm | - | - | - |
| 1777915564 | 22.22° C | 52% | 1013.7 hPa | 0 mm | - | - | - |
| 1777915443 | 22.22° C | 53% | 1013.7 hPa | 0 mm | - | - | - |
| 1777915323 | 22.22° C | 52% | 1013.7 hPa | 0 mm | - | - | - |
| 1777915203 | 22.78° C | 53% | 1013.8 hPa | 0 mm | - | - | - |
| 1777915084 | 22.78° C | 51% | 1013.9 hPa | 0 mm | - | - | - |
| 1777914964 | 22.78° C | 52% | 1013.9 hPa | 0 mm | - | - | - |
| 1777914844 | 22.78° C | 55% | 1014 hPa | 0 mm | - | - | - |
| 1777914723 | 22.78° C | 53% | 1013.9 hPa | 0 mm | - | - | - |
| 1777914603 | 22.78° C | 52% | 1013.9 hPa | 0 mm | - | - | - |
| 1777914483 | 22.78° C | 54% | 1013.9 hPa | 0 mm | - | - | - |
| 1777914364 | 22.78° C | 51% | 1013.9 hPa | 0 mm | - | - | - |
| 1777914244 | 22.78° C | 52% | 1013.9 hPa | 0 mm | - | - | - |
| 1777914124 | 22.78° C | 53% | 1014.2 hPa | 0 mm | - | - | - |
| 1777914003 | 22.78° C | 52% | 1014.2 hPa | 0 mm | - | - | - |
| 1777913883 | 22.78° C | 53% | 1014.2 hPa | 0 mm | - | - | - |
| 1777913763 | 22.78° C | 53% | 1014.2 hPa | 0 mm | - | - | - |
| 1777913643 | 22.78° C | 53% | 1014.2 hPa | 0 mm | - | - | - |
* Rain latest hour (hover to see other rain measurements)
** Current wind speed in m/s (hover to see current wind gust speed)